Time,TemperatureF,DewpointF,PressureIn,WindDirection,WindDirectionDegrees,WindSpeedMPH,WindSpeedGustMPH,Humidity,HourlyPrecipIn,Conditions,Clouds,dailyrainin,SoftwareType,DateUTC
2013-06-09 00:00:00,78.1,43.2,29.77,SSW,202,6.0,12.0,32,0.00,,---,0.00,VWS V13.01,2013-06-09 07:00:00,
2013-06-09 00:30:00,77.0,41.3,29.76,WSW,248,5.0,14.0,30,0.00,,---,0.00,VWS V13.01,2013-06-09 07:30:00,
2013-06-09 01:00:00,76.8,44.8,29.75,WSW,248,0.0,0.0,28,0.00,,---,0.00,VWS V13.01,2013-06-09 08:00:00,
2013-06-09 01:30:00,76.0,36.4,29.77,WSW,248,0.0,0.0,33,0.00,,---,0.00,VWS V13.01,2013-06-09 08:30:00,
2013-06-09 02:00:00,75.7,42.9,29.77,WSW,248,0.0,0.0,24,0.00,,---,0.00,VWS V13.01,2013-06-09 09:00:00,
2013-06-09 02:30:00,76.6,42.9,29.76,WSW,248,0.0,0.0,30,0.00,,---,0.00,VWS V13.01,2013-06-09 09:30:00,
2013-06-09 03:00:00,73.8,40.4,29.76,WSW,248,0.0,0.0,33,0.00,,---,0.00,VWS V13.01,2013-06-09 10:00:00,
2013-06-09 03:30:00,71.8,37.3,29.76,WSW,248,0.0,0.0,32,0.00,,---,0.00,VWS V13.01,2013-06-09 10:30:00,
2013-06-09 04:00:00,71.2,36.1,29.75,WSW,248,0.0,0.0,29,0.00,,---,0.00,VWS V13.01,2013-06-09 11:00:00,
2013-06-09 04:30:00,70.8,38.3,29.75,WSW,248,0.0,0.0,28,0.00,,---,0.00,VWS V13.01,2013-06-09 11:30:00,
2013-06-09 05:00:00,70.4,39.2,29.76,WSW,248,0.0,0.0,31,0.00,,---,0.00,VWS V13.01,2013-06-09 12:00:00,
2013-06-09 05:30:00,69.6,38.0,29.76,WSW,248,0.0,0.0,33,0.00,,---,0.00,VWS V13.01,2013-06-09 12:30:00,
2013-06-09 06:00:00,69.1,38.6,29.76,WSW,248,0.0,0.0,32,0.00,,---,0.00,VWS V13.01,2013-06-09 13:00:00,
2013-06-09 06:30:00,69.8,38.7,29.77,WSW,248,0.0,0.0,32,0.00,,---,0.00,VWS V13.01,2013-06-09 13:30:00,
2013-06-09 07:00:00,69.0,39.3,29.78,WSW,248,0.0,0.0,33,0.00,,---,0.00,VWS V13.01,2013-06-09 14:00:00,
2013-06-09 07:30:00,69.7,39.2,29.78,WSW,248,0.0,0.0,33,0.00,,---,0.00,VWS V13.01,2013-06-09 14:30:00,
2013-06-09 08:00:00,72.3,40.0,29.78,WSW,248,0.0,0.0,30,0.00,,---,0.00,VWS V13.01,2013-06-09 15:00:00,
2013-06-09 08:30:00,76.4,41.2,29.79,WSW,248,0.0,0.0,27,0.00,,---,0.00,VWS V13.01,2013-06-09 15:30:00,
2013-06-09 09:00:00,80.2,36.9,29.78,WSW,248,0.0,0.0,25,0.00,,---,0.00,VWS V13.01,2013-06-09 16:00:00,
2013-06-09 09:30:00,83.5,36.7,29.78,WSW,248,0.0,0.0,19,0.00,,---,0.00,VWS V13.01,2013-06-09 16:30:00,
2013-06-09 10:00:00,86.7,36.5,29.78,WSW,248,0.0,0.0,17,0.00,,---,0.00,VWS V13.01,2013-06-09 17:00:00,
2013-06-09 10:30:00,88.4,40.0,29.79,WSW,248,0.0,0.0,16,0.00,,---,0.00,VWS V13.01,2013-06-09 17:30:00,
2013-06-09 11:00:00,89.0,39.1,29.78,WSW,248,0.0,0.0,18,0.00,,---,0.00,VWS V13.01,2013-06-09 18:00:00,
2013-06-09 11:30:00,89.6,39.3,29.79,WSW,248,0.0,0.0,17,0.00,,---,0.00,VWS V13.01,2013-06-09 18:30:00,
2013-06-09 12:00:00,89.9,41.4,29.80,WSW,248,0.0,0.0,17,0.00,,---,0.00,VWS V13.01,2013-06-09 19:00:00,
2013-06-09 12:30:00,90.7,41.4,29.79,WSW,248,0.0,0.0,18,0.00,,---,0.00,VWS V13.01,2013-06-09 19:30:00,
2013-06-09 13:00:00,92.5,40.5,29.78,WSW,248,0.0,0.0,17,0.00,,---,0.00,VWS V13.01,2013-06-09 20:00:00,
2013-06-09 13:30:00,93.4,42.4,29.78,WSW,248,0.0,0.0,16,0.00,,---,0.00,VWS V13.01,2013-06-09 20:30:00,
2013-06-09 14:00:00,93.7,40.5,29.78,WSW,248,0.0,0.0,17,0.00,,---,0.00,VWS V13.01,2013-06-09 21:00:00,
2013-06-09 14:30:00,93.3,38.7,29.78,WSW,248,0.0,0.0,16,0.00,,---,0.00,VWS V13.01,2013-06-09 21:30:00,
2013-06-09 15:00:00,93.1,33.1,29.77,WSW,248,0.0,0.0,15,0.00,,---,0.00,VWS V13.01,2013-06-09 22:00:00,
2013-06-09 15:30:00,93.2,30.5,29.77,WSW,248,0.0,0.0,12,0.00,,---,0.00,VWS V13.01,2013-06-09 22:30:00,
2013-06-09 16:00:00,92.6,31.0,29.76,WSW,248,0.0,0.0,11,0.00,,---,0.00,VWS V13.01,2013-06-09 23:00:00,
2013-06-09 16:30:00,93.3,27.8,29.76,WSW,248,0.0,0.0,11,0.00,,---,0.00,VWS V13.01,2013-06-09 23:30:00,
2013-06-09 17:00:00,92.1,29.6,29.77,WSW,248,0.0,0.0,10,0.00,,---,0.00,VWS V13.01,2013-06-10 00:00:00,
2013-06-09 17:30:00,91.5,30.6,29.76,WSW,248,0.0,0.0,11,0.00,,---,0.00,VWS V13.01,2013-06-10 00:30:00,
2013-06-09 18:00:00,90.0,31.4,29.77,WSW,248,0.0,0.0,12,0.00,,---,0.00,VWS V13.01,2013-06-10 01:00:00,
2013-06-09 18:30:00,88.4,30.0,29.76,WSW,248,0.0,0.0,13,0.00,,---,0.00,VWS V13.01,2013-06-10 01:30:00,
2013-06-09 19:00:00,86.6,30.5,29.77,WSW,248,0.0,0.0,13,0.00,,---,0.00,VWS V13.01,2013-06-10 02:00:00,
2013-06-09 19:30:00,85.0,29.4,29.76,WSW,248,0.0,0.0,14,0.00,,---,0.00,VWS V13.01,2013-06-10 02:30:00,
2013-06-09 20:00:00,83.6,29.8,29.77,WSW,248,0.0,0.0,14,0.00,,---,0.00,VWS V13.01,2013-06-10 03:00:00,
2013-06-09 20:30:00,79.4,29.3,29.77,WSW,237,0.0,0.0,16,0.00,,---,0.00,VWS V13.01,2013-06-10 03:30:00,
2013-06-09 23:00:00,72.8,26.9,29.80,WSW,246,0.0,0.0,18,0.00,,---,0.00,VWS V13.01,2013-06-10 06:00:00,
2013-06-09 23:30:00,72.0,24.8,29.79,WSW,252,0.0,0.0,17,0.00,,---,0.00,VWS V13.01,2013-06-10 06:30:00,